Voltar ao catálogo

STARLINK-30963

AtivoComunicaçõesVLEO
NORAD 58444·PAYLOAD·🇺🇸 United States

Lançado Nov 28, 2023 de Cape Canaveral Space Force Station

Loading…

Próximas Passagens (próximas 24 horas)

TLE

AtualizadoSource: CelesTrak SupGP

Época: Sep 14, 2026, 20:52 UTC

1 58444C 23183H   26257.86993056  .00049451  00000+0  17911-2 0  2570
2 58444  43.0045  52.9917 0001810 277.5190 301.5291 15.27552613    16

Acompanhe STARLINK-30963 em tempo real com AllMySat

Download on the App Store